Time,TemperatureF,DewpointF,PressureIn,WindDirection,WindDirectionDegrees,WindSpeedMPH,WindSpeedGustMPH,Humidity,HourlyPrecipIn,Conditions,Clouds,dailyrainin,SolarRadiationWatts/m^2,SoftwareType,DateUTC
2013-01-25 00:01:00,34.0,33.0,30.26,WNW,303,2.0,2.0,93,-99.99,,,-99.99,0.000000,,2013-01-25 08:01:00,
2013-01-25 00:10:00,32.0,30.0,30.26,North,8,0.0,2.0,93,-99.99,,,-99.99,0.000000,,2013-01-25 08:10:00,
2013-01-25 00:52:00,32.0,30.0,30.26,North,8,0.0,2.0,93,-99.99,,,-99.99,0.000000,,2013-01-25 08:52:00,
2013-01-25 01:01:00,32.0,30.0,30.26,North,8,0.0,2.0,93,-99.99,,,-99.99,0.000000,,2013-01-25 09:01:00,
2013-01-25 01:10:00,32.0,30.0,30.26,South,186,2.0,3.0,94,-99.99,,,-99.99,0.000000,,2013-01-25 09:10:00,
2013-01-25 01:51:00,32.0,30.0,30.26,South,186,2.0,3.0,94,-99.99,,,-99.99,0.000000,,2013-01-25 09:51:00,
2013-01-25 02:01:00,32.0,30.0,30.26,South,186,2.0,3.0,94,-99.99,,,-99.99,0.000000,,2013-01-25 10:01:00,
2013-01-25 02:10:00,33.0,31.0,30.26,WNW,291,3.0,3.0,95,-99.99,,,-99.99,0.000000,,2013-01-25 10:10:00,
2013-01-25 02:51:00,33.0,31.0,30.26,WNW,291,3.0,3.0,95,-99.99,,,-99.99,0.000000,,2013-01-25 10:51:00,
2013-01-25 03:02:00,33.0,31.0,30.26,WNW,291,3.0,3.0,95,-99.99,,,-99.99,0.000000,,2013-01-25 11:02:00,
2013-01-25 03:10:00,33.0,32.0,30.24,West,260,1.0,1.0,95,-99.99,,,-99.99,0.000000,,2013-01-25 11:10:00,
2013-01-25 03:52:00,33.0,32.0,30.24,West,260,1.0,1.0,95,-99.99,,,-99.99,0.000000,,2013-01-25 11:52:00,
2013-01-25 04:02:00,33.0,32.0,30.24,West,260,1.0,1.0,95,-99.99,,,-99.99,0.000000,,2013-01-25 12:02:00,
2013-01-25 04:10:00,32.0,31.0,30.24,NW,306,2.0,3.0,95,-99.99,,,-99.99,0.000000,,2013-01-25 12:10:00,
2013-01-25 04:52:00,32.0,31.0,30.24,NW,306,2.0,3.0,95,-99.99,,,-99.99,0.000000,,2013-01-25 12:52:00,
2013-01-25 05:02:00,32.0,31.0,30.24,NW,306,2.0,3.0,95,-99.99,,,-99.99,0.000000,,2013-01-25 13:02:00,
2013-01-25 05:10:00,33.0,32.0,30.23,NNW,333,1.0,2.0,96,-99.99,,,-99.99,0.000000,,2013-01-25 13:10:00,
2013-01-25 05:52:00,33.0,32.0,30.23,NNW,333,1.0,2.0,96,-99.99,,,-99.99,0.000000,,2013-01-25 13:52:00,
2013-01-25 06:02:00,33.0,32.0,30.23,NNW,333,1.0,2.0,96,-99.99,,,-99.99,0.000000,,2013-01-25 14:02:00,
2013-01-25 06:10:00,33.0,32.0,30.24,WNW,289,1.0,2.0,96,-99.99,,,-99.99,0.000000,,2013-01-25 14:10:00,
2013-01-25 06:52:00,33.0,32.0,30.24,WNW,289,1.0,2.0,96,-99.99,,,-99.99,0.000000,,2013-01-25 14:52:00,
2013-01-25 07:02:00,33.0,32.0,30.24,WNW,289,1.0,2.0,96,-99.99,,,-99.99,0.000000,,2013-01-25 15:02:00,
2013-01-25 07:10:00,33.0,32.0,30.23,NNW,338,1.0,2.0,96,-99.99,,,-99.99,0.000000,,2013-01-25 15:10:00,
2013-01-25 07:52:00,33.0,32.0,30.23,NNW,338,1.0,2.0,96,-99.99,,,-99.99,0.000000,,2013-01-25 15:52:00,
2013-01-25 08:03:00,33.0,32.0,30.23,NNW,338,1.0,2.0,96,-99.99,,,-99.99,0.000000,,2013-01-25 16:03:00,
2013-01-25 09:10:00,35.0,34.0,30.23,NW,312,2.0,3.0,97,-99.99,,,-99.99,140.000000,,2013-01-25 17:10:00,
2013-01-25 09:52:00,35.0,34.0,30.23,NW,312,2.0,3.0,97,-99.99,,,-99.99,140.000000,,2013-01-25 17:52:00,
2013-01-25 10:02:00,35.0,34.0,30.23,NW,312,2.0,3.0,97,-99.99,,,-99.99,140.000000,,2013-01-25 18:02:00,
2013-01-25 10:10:00,36.0,35.0,30.24,NNW,334,0.0,2.0,97,-99.99,,,-99.99,160.000000,,2013-01-25 18:10:00,
2013-01-25 10:52:00,36.0,35.0,30.24,NNW,334,0.0,2.0,97,-99.99,,,-99.99,160.000000,,2013-01-25 18:52:00,
2013-01-25 11:02:00,36.0,35.0,30.24,NNW,334,0.0,2.0,97,-99.99,,,-99.99,160.000000,,2013-01-25 19:02:00,
2013-01-25 11:52:00,36.0,34.0,30.23,SSW,209,2.0,4.0,93,-99.99,,,-99.99,220.000000,,2013-01-25 19:52:00,
2013-01-25 13:10:00,41.0,35.0,30.18,South,188,0.0,3.0,80,-99.99,,,-99.99,380.000000,,2013-01-25 21:10:00,
2013-01-25 13:52:00,41.0,35.0,30.18,South,188,0.0,3.0,80,-99.99,,,-99.99,380.000000,,2013-01-25 21:52:00,
2013-01-25 14:02:00,41.0,35.0,30.18,South,188,0.0,3.0,80,-99.99,,,-99.99,380.000000,,2013-01-25 22:02:00,
2013-01-25 15:52:00,38.0,35.0,30.15,WSW,239,1.0,2.0,88,-99.99,,,-99.99,40.000000,,2013-01-25 23:52:00,
2013-01-25 16:01:00,38.0,35.0,30.15,WSW,239,1.0,2.0,88,-99.99,,,-99.99,40.000000,,2013-01-26 00:01:00,
2013-01-25 16:10:00,37.0,34.0,30.13,West,261,4.0,6.0,88,-99.99,,,-99.99,20.000000,,2013-01-26 00:10:00,
2013-01-25 16:52:00,37.0,34.0,30.13,West,261,4.0,6.0,88,-99.99,,,-99.99,20.000000,,2013-01-26 00:52:00,
2013-01-25 17:01:00,37.0,34.0,30.13,West,261,4.0,6.0,88,-99.99,,,-99.99,20.000000,,2013-01-26 01:01:00,
2013-01-25 17:10:00,37.0,34.0,30.12,ENE,69,2.0,4.0,90,-99.99,,,-99.99,0.000000,,2013-01-26 01:10:00,
2013-01-25 17:52:00,37.0,34.0,30.12,ENE,69,2.0,4.0,90,-99.99,,,-99.99,0.000000,,2013-01-26 01:52:00,
2013-01-25 18:01:00,37.0,34.0,30.12,ENE,69,2.0,4.0,90,-99.99,,,-99.99,0.000000,,2013-01-26 02:01:00,
2013-01-25 18:10:00,35.0,33.0,30.12,WNW,293,1.0,2.0,93,-99.99,,,-99.99,0.000000,,2013-01-26 02:10:00,
2013-01-25 18:52:00,35.0,33.0,30.12,WNW,293,1.0,2.0,93,-99.99,,,-99.99,0.000000,,2013-01-26 02:52:00,
2013-01-25 19:01:00,35.0,33.0,30.12,WNW,293,1.0,2.0,93,-99.99,,,-99.99,0.000000,,2013-01-26 03:01:00,
2013-01-25 19:10:00,35.0,33.0,30.12,WSW,256,3.0,3.0,92,-99.99,,,-99.99,0.000000,,2013-01-26 03:10:00,
2013-01-25 19:51:00,35.0,33.0,30.12,WSW,256,3.0,3.0,92,-99.99,,,-99.99,0.000000,,2013-01-26 03:51:00,
2013-01-25 20:01:00,35.0,33.0,30.12,WSW,256,3.0,3.0,92,-99.99,,,-99.99,0.000000,,2013-01-26 04:01:00,
2013-01-25 20:10:00,35.0,33.0,30.12,NNW,346,2.0,3.0,92,-99.99,,,-99.99,0.000000,,2013-01-26 04:10:00,
2013-01-25 20:52:00,35.0,33.0,30.12,NNW,346,2.0,3.0,92,-99.99,,,-99.99,0.000000,,2013-01-26 04:52:00,
2013-01-25 21:03:00,35.0,33.0,30.12,NNW,346,2.0,3.0,92,-99.99,,,-99.99,0.000000,,2013-01-26 05:03:00,
2013-01-25 21:10:00,36.0,34.0,30.10,NW,320,4.0,5.0,91,-99.99,,,-99.99,0.000000,,2013-01-26 05:10:00,
2013-01-25 21:52:00,36.0,34.0,30.10,NW,320,4.0,5.0,91,-99.99,,,-99.99,0.000000,,2013-01-26 05:52:00,
2013-01-25 22:02:00,36.0,34.0,30.10,NW,320,4.0,5.0,91,-99.99,,,-99.99,0.000000,,2013-01-26 06:02:00,